Location: Spring Creek
(38.2870°N, 100.2160°W)
Time: 16:37:56
(UTC+00:00)

DELTA 2 R/B (1) - Pass Details

Date: 03 October 2021
Orbit: 790 x 802 km, 39.6° (Epoch: 16 October)

Event Time Altitude Azimuth Distance (km) Brightness Sun altitude
Exits shadow 10:23:08 17° 166° (SSE) 1,884 5.5 -27.1°
Maximum altitude 10:24:48 20° 143° (SE) 1,766 5.5 -26.8°
Drops below altitude 10° 10:28:41 10° 98° (E) 2,348 6.8 -26.1°
Sets 10:31:47 0° 82° (E) 3,281 8.1 -25.5°
